Weather reports worldwide

Advertisment
Usk, United Kingdom (99176): temperature & dewpoint: 04.12.2018 10:00:00 - 10.12.2018 10:00:00 (GMT)Usk, United Kingdom (99176): temperature -20cm & temperature -100cm: 04.12.2018 10:00:00 - 10.12.2018 10:00:00 (GMT)Usk, United Kingdom (99176): precipitation: 04.12.2018 10:00:00 - 10.12.2018 10:00:00 (GMT)
Date & Time tt [°C] td [°C] tt -20cm [°C] tt -100cm [°C] rr [mm]
10.12.2018 10:00:00 - - - - -
10.12.2018 09:00:00 5,3 3,4 8,4 9,9 0,0
10.12.2018 08:00:00 6,7 3,9 - - 0,0
10.12.2018 07:00:00 5,9 4,2 - - 0,0
10.12.2018 06:00:00 6,4 3,2 - - 0,0
10.12.2018 05:00:00 8,4 4,0 - - 0,0
10.12.2018 04:00:00 7,5 3,9 - - 0,0
10.12.2018 03:00:00 8,1 4,5 - - 0,0
10.12.2018 02:00:00 7,1 3,7 - - 0,0
10.12.2018 01:00:00 7,3 3,5 - - 0,0
10.12.2018 00:00:00 8,2 4,4 - - 0,0
09.12.2018 23:00:00 8,3 4,5 - - 0,0
09.12.2018 22:00:00 9,0 4,3 - - 0,0
09.12.2018 21:00:00 7,7 4,8 - - 0,0
09.12.2018 20:00:00 7,4 4,6 - - 0,0
09.12.2018 19:00:00 7,7 3,6 - - 0,0
09.12.2018 18:00:00 8,6 4,5 - - 0,0
09.12.2018 17:00:00 8,5 4,8 - - 0,0
09.12.2018 16:00:00 9,4 4,9 - - 0,0
09.12.2018 15:00:00 10,3 4,4 - - 0,0
09.12.2018 14:00:00 10,8 4,3 - - 0,0
09.12.2018 13:00:00 11,1 5,0 - - 0,0
09.12.2018 12:00:00 10,3 5,2 - - 0,0
09.12.2018 11:00:00 10,2 5,8 - - 0,0
09.12.2018 10:00:00 10,3 6,5 - - 0,0
09.12.2018 09:00:00 9,9 5,5 8,7 9,9 0,0
09.12.2018 08:00:00 10,0 5,3 - - 0,0
09.12.2018 07:00:00 10,0 5,7 - - 0,0
09.12.2018 06:00:00 10,0 5,9 - - 0,0
09.12.2018 05:00:00 9,0 6,8 - - 1,0
09.12.2018 04:00:00 9,1 6,5 - - 0,4
09.12.2018 03:00:00 9,4 5,9 - - 0,2
09.12.2018 02:00:00 9,6 4,7 - - 0,0
09.12.2018 01:00:00 9,8 4,5 - - 0,0
09.12.2018 00:00:00 9,5 4,7 - - 0,0
08.12.2018 23:00:00 9,5 4,7 - - 0,0
08.12.2018 22:00:00 9,9 5,1 - - 0,4
08.12.2018 21:00:00 9,3 6,0 - - 0,2
08.12.2018 20:00:00 9,6 5,9 - - 0,2
08.12.2018 19:00:00 9,4 6,1 - - 0,0
08.12.2018 18:00:00 9,3 5,3 - - 1,4
08.12.2018 17:00:00 11,6 6,0 - - 0,0
08.12.2018 16:00:00 11,6 6,4 - - 0,0
08.12.2018 15:00:00 12,3 6,2 - - 0,2
08.12.2018 14:00:00 12,3 8,7 - - 0,2
08.12.2018 13:00:00 11,7 10,0 - - 0,4
08.12.2018 12:00:00 11,4 9,6 - - 0,2
08.12.2018 11:00:00 11,2 8,4 - - 0,0
08.12.2018 10:00:00 10,6 5,9 - - 0,0
08.12.2018 09:00:00 10,3 3,9 8,7 9,9 0,0
08.12.2018 08:00:00 9,7 4,6 - - 0,0
08.12.2018 07:00:00 9,5 4,5 - - 0,0
08.12.2018 06:00:00 9,3 4,0 - - 0,0
08.12.2018 05:00:00 9,1 4,6 - - 0,0
08.12.2018 04:00:00 9,7 4,0 - - 0,0
08.12.2018 03:00:00 9,8 4,3 - - 0,2
08.12.2018 02:00:00 9,6 4,8 - - 0,0
08.12.2018 01:00:00 9,3 4,5 - - 0,0
08.12.2018 00:00:00 9,1 4,7 - - 0,0
07.12.2018 23:00:00 8,8 4,0 - - 0,0
07.12.2018 22:00:00 9,0 3,8 - - 0,0
07.12.2018 21:00:00 8,7 3,6 - - 0,0
07.12.2018 20:00:00 8,5 3,3 - - 0,0
07.12.2018 19:00:00 8,0 2,7 - - 0,0
07.12.2018 18:00:00 8,0 2,6 - - 0,0
07.12.2018 17:00:00 8,3 1,5 - - 0,0
07.12.2018 16:00:00 8,0 1,9 - - 0,0
07.12.2018 15:00:00 8,4 0,9 - - 0,2
07.12.2018 14:00:00 7,5 3,0 - - 0,4
07.12.2018 13:00:00 9,8 2,6 - - 0,0
07.12.2018 12:00:00 10,1 3,6 - - 0,0
07.12.2018 11:00:00 10,1 4,4 - - 0,0
07.12.2018 10:00:00 10,0 5,1 - - 0,0
07.12.2018 09:00:00 9,8 8,0 9,2 9,7 0,0
07.12.2018 08:00:00 10,2 7,5 - - 1,2
07.12.2018 07:00:00 12,1 10,8 - - 2,6
07.12.2018 06:00:00 12,1 11,5 - - 4,4
07.12.2018 05:00:00 12,0 11,4 - - 2,2
07.12.2018 04:00:00 12,2 11,5 - - 2,2
07.12.2018 03:00:00 12,4 11,7 - - 1,2
07.12.2018 02:00:00 12,3 11,7 - - 1,0
07.12.2018 01:00:00 12,7 12,1 - - 0,6
07.12.2018 00:00:00 12,6 12,1 - - 0,6
06.12.2018 23:00:00 12,7 11,9 - - 0,0
06.12.2018 22:00:00 12,6 11,6 - - 0,0
06.12.2018 21:00:00 12,9 11,5 - - 0,0
06.12.2018 20:00:00 12,7 11,6 - - 0,0
06.12.2018 19:00:00 13,1 11,3 - - 0,0
06.12.2018 18:00:00 13,1 11,3 - - 0,0
06.12.2018 17:00:00 13,0 11,3 - - 0,0
06.12.2018 16:00:00 13,0 11,3 - - 0,0
06.12.2018 15:00:00 12,9 11,3 - - 0,0
06.12.2018 14:00:00 12,7 11,2 - - 0,0
06.12.2018 13:00:00 12,5 11,2 - - 0,0
06.12.2018 12:00:00 11,8 10,3 - - 0,0
06.12.2018 11:00:00 11,7 7,7 - - 0,2
06.12.2018 10:00:00 12,2 9,2 - - 0,0
06.12.2018 09:00:00 12,1 10,1 8,5 9,7 0,0
06.12.2018 08:00:00 11,7 10,1 - - 0,0
06.12.2018 07:00:00 11,8 10,1 - - 0,0
06.12.2018 06:00:00 10,9 10,4 - - 0,0
06.12.2018 05:00:00 11,1 10,2 - - 0,0
06.12.2018 04:00:00 11,2 9,9 - - 0,0
06.12.2018 03:00:00 10,7 9,4 - - 0,0
06.12.2018 02:00:00 10,2 9,4 - - 0,0
06.12.2018 01:00:00 8,4 8,3 - - 0,0
06.12.2018 00:00:00 8,8 8,7 - - 0,0
05.12.2018 23:00:00 9,2 8,3 - - 0,0
05.12.2018 22:00:00 10,9 9,9 - - 0,0
05.12.2018 21:00:00 10,4 10,1 - - 0,0
05.12.2018 20:00:00 10,8 10,4 - - 0,0
05.12.2018 19:00:00 11,2 11,0 - - 0,0
05.12.2018 18:00:00 11,9 11,2 - - 0,0
05.12.2018 17:00:00 11,8 11,4 - - 0,2
05.12.2018 16:00:00 11,6 11,1 - - 0,0
05.12.2018 15:00:00 11,7 11,2 - - 0,6
05.12.2018 14:00:00 11,7 11,3 - - 2,6
05.12.2018 13:00:00 11,7 11,2 - - 2,6
05.12.2018 12:00:00 12,0 11,4 - - 1,2
05.12.2018 11:00:00 11,2 11,2 - - 0,2
05.12.2018 10:00:00 6,3 6,2 - - 0,0
05.12.2018 09:00:00 5,7 5,6 8,0 10,0 0,0
05.12.2018 08:00:00 5,5 5,4 - - 0,0
05.12.2018 07:00:00 5,4 5,2 - - 0,0
05.12.2018 06:00:00 5,2 5,1 - - 0,0
05.12.2018 05:00:00 5,0 4,9 - - 0,4
05.12.2018 04:00:00 4,6 4,6 - - 0,6
05.12.2018 03:00:00 4,3 4,2 - - 1,0
05.12.2018 02:00:00 4,2 4,0 - - 2,0
05.12.2018 01:00:00 4,0 3,8 - - 1,8
05.12.2018 00:00:00 3,9 3,6 - - 1,4
04.12.2018 23:00:00 4,1 3,6 - - 0,8
04.12.2018 22:00:00 4,0 3,4 - - 1,2
04.12.2018 21:00:00 4,2 3,8 - - 0,8
04.12.2018 20:00:00 4,3 4,0 - - 0,6
04.12.2018 19:00:00 4,3 4,0 - - 1,0
04.12.2018 18:00:00 4,5 3,9 - - 0,6
04.12.2018 17:00:00 5,0 3,8 - - 0,4
04.12.2018 16:00:00 4,2 3,7 - - 0,0
04.12.2018 15:00:00 4,1 3,6 - - 0,0
04.12.2018 14:00:00 4,3 3,8 - - 0,0
04.12.2018 13:00:00 4,3 3,7 - - 0,0
04.12.2018 12:00:00 3,5 3,1 - - 0,0
04.12.2018 11:00:00 2,4 2,0 - - 0,0
04.12.2018 10:00:00 1,6 1,4 - - 0,0

tt = temperature
td = dewpoint
tt -20cm = temperature -20cm
tt -100cm = temperature -100cm
rr = precipitation

Next stations